| time (UTC) | temp F | wind direction | speed MPH | gust MPH | rain 1hr in | rain 24hr in | rain mn in | humidity % | barometer mb |
| 20260508102030 | 37 | 242 | 0.0 | 0.0 | 0.00 | 0.00 | 0.00 | 69 | 1018.4 |
| 20260508101021 | 38 | 242 | 0.0 | 0.0 | 0.00 | 0.00 | 0.00 | 68 | 1018.4 |
| 20260508095022 | 38 | 242 | 0.0 | 0.0 | 0.00 | 0.00 | 0.00 | 69 | 1018.6 |
| 20260508094040 | 38 | 242 | 0.0 | 0.0 | 0.00 | 0.00 | 0.00 | 69 | 1018.7 |
| 20260508093032 | 39 | 241 | 0.0 | 0.0 | 0.00 | 0.00 | 0.00 | 69 | 1018.8 |
| 20260508092029 | 40 | 241 | 0.0 | 0.0 | 0.00 | 0.00 | 0.00 | 68 | 1018.9 |
| 20260508091027 | 41 | 241 | 0.0 | 0.0 | 0.00 | 0.00 | 0.00 | 66 | 1019.0 |
| 20260508090029 | 41 | 241 | 0.0 | 0.0 | 0.00 | 0.00 | 0.00 | 67 | 1019.0 |
| 20260508085020 | 41 | 241 | 0.0 | 0.0 | 0.00 | 0.00 | 0.00 | 66 | 1019.0 |
| 20260508084034 | 41 | 241 | 0.0 | 0.0 | 0.00 | 0.00 | 0.00 | 67 | 1019.0 |
| 20260508083029 | 41 | 241 | 0.0 | 0.0 | 0.00 | 0.00 | 0.00 | 66 | 1019.0 |
| 20260508082021 | 41 | 241 | 0.0 | 0.0 | 0.00 | 0.00 | 0.00 | 67 | 1019.0 |
| 20260508081020 | 41 | 241 | 0.0 | 0.0 | 0.00 | 0.00 | 0.00 | 69 | 1019.0 |
| 20260508080032 | 40 | 237 | 0.0 | 0.0 | 0.00 | 0.00 | 0.00 | 71 | 1019.2 |
| 20260508074021 | 40 | 261 | 0.0 | 0.0 | 0.00 | 0.00 | 0.00 | 72 | 1018.7 |
| 20260508072033 | 39 | 269 | 1.0 | 0.0 | 0.00 | 0.00 | 0.00 | 72 | 1019.2 |
| 20260508071029 | 38 | 269 | 2.0 | 0.0 | 0.00 | 0.00 | 0.00 | 72 | 1019.2 |
| 20260508070027 | 38 | 269 | 1.0 | 0.0 | 0.00 | 0.00 | 0.00 | 71 | 1019.3 |
| 20260508065020 | 38 | 269 | 0.0 | 0.0 | 0.00 | 0.00 | 0.00 | 71 | 1019.3 |
| 20260508063028 | 39 | 269 | 0.0 | 0.0 | 0.00 | 0.00 | 0.00 | 72 | 1019.4 |
| 20260508062026 | 39 | 269 | 0.0 | 0.0 | 0.00 | 0.00 | 0.00 | 72 | 1019.3 |
| 20260508061021 | 39 | 269 | 0.0 | 0.0 | 0.00 | 0.00 | 0.00 | 72 | 1019.3 |
| 20260508060037 | 39 | 269 | 0.0 | 0.0 | 0.00 | 0.00 | 0.00 | 72 | 1019.2 |
| 20260508055028 | 40 | 269 | 0.0 | 0.0 | 0.00 | 0.00 | 0.04 | 71 | 1019.4 |
| 20260508054024 | 40 | 269 | 0.0 | 0.0 | 0.00 | 0.00 | 0.04 | 71 | 1019.4 |
| 20260508053023 | 40 | 269 | 1.0 | 0.0 | 0.00 | 0.00 | 0.04 | 71 | 1019.6 |
| 20260508052038 | 40 | 269 | 0.0 | 0.0 | 0.00 | 0.00 | 0.04 | 71 | 1019.0 |
| 20260508051032 | 40 | 269 | 0.0 | 0.0 | 0.00 | 0.00 | 0.04 | 72 | 1019.1 |
| 20260508050027 | 39 | 250 | 0.0 | 0.0 | 0.00 | 0.00 | 0.04 | 73 | 1019.2 |
| 20260508045023 | 40 | 250 | 0.0 | 0.0 | 0.00 | 0.00 | 0.04 | 72 | 1019.0 |
| 20260508044037 | 40 | 250 | 0.0 | 0.0 | 0.00 | 0.00 | 0.04 | 72 | 1018.9 |
| 20260508043035 | 41 | 250 | 1.0 | 0.0 | 0.00 | 0.00 | 0.04 | 71 | 1018.8 |
| 20260508042032 | 41 | 232 | 0.0 | 0.0 | 0.00 | 0.00 | 0.04 | 70 | 1018.9 |
| 20260508041027 | 41 | 232 | 1.0 | 0.0 | 0.00 | 0.00 | 0.04 | 68 | 1018.8 |
| 20260508040024 | 42 | 199 | 0.0 | 0.0 | 0.00 | 0.00 | 0.04 | 67 | 1018.8 |
| 20260508035037 | 42 | 286 | 1.0 | 0.0 | 0.00 | 0.00 | 0.04 | 66 | 1018.9 |
| 20260508034032 | 43 | 294 | 0.0 | 0.0 | 0.00 | 0.00 | 0.04 | 66 | 1018.9 |
| 20260508033024 | 43 | 294 | 0.0 | 0.0 | 0.00 | 0.00 | 0.04 | 65 | 1018.8 |
| 20260508032023 | 43 | 199 | 1.0 | 0.0 | 0.00 | 0.00 | 0.04 | 65 | 1018.6 |
| 20260508031036 | 43 | 237 | 0.0 | 0.0 | 0.00 | 0.00 | 0.04 | 65 | 1018.4 |
| 20260508030031 | 43 | 205 | 0.0 | 0.0 | 0.00 | 0.00 | 0.04 | 65 | 1018.5 |
| 20260508025023 | 43 | 233 | 0.0 | 0.0 | 0.00 | 0.00 | 0.04 | 65 | 1018.4 |
| 20260508024038 | 44 | 233 | 0.0 | 0.0 | 0.00 | 0.00 | 0.04 | 64 | 1018.5 |
| 20260508023034 | 44 | 235 | 0.0 | 0.0 | 0.00 | 0.00 | 0.04 | 63 | 1018.3 |
| 20260508022033 | 44 | 235 | 0.0 | 0.0 | 0.00 | 0.00 | 0.04 | 64 | 1018.4 |
| 20260508020040 | 45 | 235 | 0.0 | 0.0 | 0.00 | 0.00 | 0.04 | 62 | 1018.3 |
| 20260508015034 | 46 | 234 | 0.0 | 0.0 | 0.00 | 0.00 | 0.04 | 60 | 1018.4 |
| 20260508014031 | 47 | 234 | 0.0 | 0.0 | 0.00 | 0.00 | 0.04 | 60 | 1017.5 |
| 20260508013026 | 46 | 235 | 0.0 | 0.0 | 0.00 | 0.00 | 0.04 | 63 | 1017.3 |
| 20260508012023 | 46 | 232 | 0.0 | 0.0 | 0.00 | 0.00 | 0.04 | 63 | 1017.4 |
| 20260508005032 | 45 | 208 | 0.0 | 0.0 | 0.00 | 0.00 | 0.04 | 77 | 1017.6 |
| 20260508004029 | 44 | 208 | 0.0 | 0.0 | 0.00 | 0.00 | 0.04 | 79 | 1017.6 |
| 20260508003023 | 43 | 306 | 0.0 | 0.0 | 0.00 | 0.00 | 0.04 | 80 | 1017.8 |
| 20260508002039 | 43 | 302 | 0.0 | 0.0 | 0.00 | 0.00 | 0.03 | 79 | 1018.2 |
| 20260508001033 | 43 | 329 | 0.0 | 0.0 | 0.00 | 0.00 | 0.03 | 81 | 1018.0 |
| 20260508000027 | 43 | 306 | 1.0 | 0.0 | 0.00 | 0.00 | 0.03 | 78 | 1018.0 |
| 20260507235041 | 44 | 280 | 1.0 | 0.0 | 0.00 | 0.00 | 0.02 | 75 | 1018.1 |
| 20260507233030 | 46 | 290 | 1.0 | 0.0 | 0.00 | 0.00 | 0.01 | 70 | 1018.3 |
| 20260507232024 | 49 | 290 | 1.0 | 0.0 | 0.00 | 0.00 | 0.01 | 62 | 1018.3 |
| 20260507231036 | 52 | 254 | 0.0 | 0.0 | 0.00 | 0.00 | 0.00 | 49 | 1018.2 |
| 20260507225033 | 54 | 253 | 2.0 | 0.0 | 0.00 | 0.00 | 0.00 | 45 | 1017.3 |
| 20260507224027 | 54 | 273 | 1.0 | 0.0 | 0.00 | 0.00 | 0.00 | 46 | 1017.7 |
| 20260507223038 | 52 | 298 | 1.0 | 0.0 | 0.00 | 0.00 | 0.00 | 49 | 1017.8 |
| 20260507222031 | 52 | 222 | 0.0 | 0.0 | 0.00 | 0.00 | 0.00 | 50 | 1017.9 |
| 20260507221027 | 54 | 333 | 1.0 | 0.0 | 0.00 | 0.00 | 0.00 | 46 | 1018.1 |
| 20260507220038 | 54 | 277 | 1.0 | 0.0 | 0.00 | 0.00 | 0.00 | 47 | 1018.3 |
| 20260507215033 | 52 | 219 | 1.0 | 0.0 | 0.00 | 0.00 | 0.00 | 51 | 1018.5 |
| 20260507212027 | 52 | 247 | 0.0 | 0.0 | 0.00 | 0.00 | 0.00 | 50 | 1019.0 |
| 20260507211021 | 51 | 259 | 1.0 | 0.0 | 0.00 | 0.00 | 0.00 | 52 | 1019.3 |
| 20260507210034 | 51 | 155 | 1.0 | 0.0 | 0.00 | 0.00 | 0.00 | 51 | 1018.7 |
| 20260507205029 | 51 | 211 | 1.0 | 0.0 | 0.00 | 0.00 | 0.00 | 50 | 1018.9 |
| 20260507203022 | 50 | 306 | 0.0 | 0.0 | 0.00 | 0.00 | 0.00 | 51 | 1019.5 |
| 20260507202039 | 50 | 245 | 1.0 | 0.0 | 0.00 | 0.00 | 0.00 | 51 | 1019.6 |
| 20260507201030 | 51 | 226 | 1.0 | 0.0 | 0.00 | 0.00 | 0.00 | 54 | 1019.7 |
| 20260507200022 | 50 | 219 | 0.0 | 0.0 | 0.00 | 0.00 | 0.00 | 55 | 1019.9 |
| 20260507194038 | 49 | 344 | 1.0 | 0.0 | 0.00 | 0.00 | 0.00 | 54 | 1020.2 |
| 20260507193032 | 50 | 33 | 1.0 | 0.0 | 0.00 | 0.00 | 0.00 | 50 | 1019.6 |
| 20260507192028 | 49 | 280 | 1.0 | 0.0 | 0.00 | 0.00 | 0.00 | 52 | 1019.9 |
| 20260507191020 | 49 | 200 | 1.0 | 0.0 | 0.00 | 0.00 | 0.00 | 47 | 1020.1 |
| 20260507190033 | 48 | 294 | 1.0 | 0.0 | 0.00 | 0.00 | 0.00 | 50 | 1020.3 |
| 20260507185031 | 48 | 271 | 2.0 | 0.0 | 0.00 | 0.00 | 0.00 | 48 | 1020.5 |
| 20260507184029 | 51 | 20 | 1.0 | 0.0 | 0.00 | 0.00 | 0.00 | 49 | 1020.5 |
| 20260507183021 | 50 | 146 | 2.0 | 0.0 | 0.00 | 0.00 | 0.00 | 50 | 1020.7 |
| 20260507182038 | 50 | 298 | 1.0 | 0.0 | 0.00 | 0.00 | 0.00 | 46 | 1020.8 |
| 20260507181030 | 49 | 245 | 1.0 | 0.0 | 0.00 | 0.00 | 0.00 | 50 | 1020.3 |
| 20260507175027 | 49 | 270 | 2.0 | 0.0 | 0.00 | 0.00 | 0.00 | 50 | 1020.5 |
| 20260507174026 | 48 | 202 | 2.0 | 0.0 | 0.00 | 0.00 | 0.00 | 47 | 1020.6 |
| 20260507172037 | 47 | 244 | 4.0 | 0.0 | 0.00 | 0.00 | 0.00 | 50 | 1020.8 |
| 20260507170030 | 45 | 209 | 3.0 | 0.0 | 0.00 | 0.00 | 0.00 | 54 | 1020.8 |
| 20260507164021 | 42 | 128 | 3.0 | 0.0 | 0.00 | 0.00 | 0.00 | 54 | 1021.1 |
| 20260507163033 | 41 | 210 | 2.0 | 0.0 | 0.00 | 0.00 | 0.00 | 55 | 1021.3 |
| 20260507162034 | 39 | 321 | 1.0 | 0.0 | 0.00 | 0.00 | 0.00 | 62 | 1021.6 |
| 20260507161028 | 37 | 94 | 3.0 | 0.0 | 0.00 | 0.00 | 0.00 | 63 | 1021.7 |
| 20260507160022 | 36 | 86 | 2.0 | 0.0 | 0.00 | 0.00 | 0.00 | 65 | 1021.9 |
| 20260507155036 | 35 | 14 | 2.0 | 0.0 | 0.00 | 0.00 | 0.00 | 63 | 1022.1 |
| 20260507153027 | 34 | 18 | 1.0 | 0.0 | 0.00 | 0.00 | 0.00 | 68 | 1021.3 |
| 20260507152021 | 33 | 360 | 3.0 | 0.0 | 0.00 | 0.00 | 0.00 | 70 | 1021.5 |
| 20260507151032 | 31 | 345 | 2.0 | 0.0 | 0.00 | 0.00 | 0.00 | 72 | 1021.7 |
| 20260507150024 | 30 | 346 | 2.0 | 0.0 | 0.00 | 0.00 | 0.00 | 72 | 1021.9 |
| 20260507145019 | 31 | 360 | 1.0 | 0.0 | 0.00 | 0.00 | 0.00 | 72 | 1021.9 |
| 20260507144019 | 31 | 337 | 1.0 | 0.0 | 0.00 | 0.00 | 0.00 | 70 | 1022.0 |
| 20260507143035 | 31 | 58 | 1.0 | 0.0 | 0.00 | 0.00 | 0.00 | 70 | 1022.3 |
| 20260507142030 | 32 | 58 | 1.0 | 0.0 | 0.00 | 0.00 | 0.00 | 69 | 1022.3 |
| 20260507141025 | 31 | 35 | 1.0 | 0.0 | 0.00 | 0.00 | 0.00 | 70 | 1022.6 |
| 20260507140022 | 30 | 52 | 1.0 | 0.0 | 0.00 | 0.00 | 0.00 | 69 | 1022.7 |
| 20260507135038 | 30 | 80 | 1.0 | 0.0 | 0.00 | 0.00 | 0.00 | 71 | 1022.6 |
| 20260507134029 | 31 | 80 | 2.0 | 0.0 | 0.00 | 0.00 | 0.00 | 70 | 1022.5 |
| 20260507133024 | 30 | 309 | 1.0 | 0.0 | 0.00 | 0.00 | 0.00 | 70 | 1022.7 |
| 20260507132020 | 29 | 87 | 0.0 | 0.0 | 0.00 | 0.00 | 0.00 | 70 | 1022.2 |
| 20260507131033 | 29 | 87 | 1.0 | 0.0 | 0.00 | 0.00 | 0.00 | 72 | 1022.0 |
| 20260507130030 | 28 | 87 | 1.0 | 0.0 | 0.00 | 0.00 | 0.00 | 71 | 1022.1 |
| 20260507124037 | 28 | 132 | 3.0 | 0.0 | 0.00 | 0.00 | 0.00 | 71 | 1022.0 |
| 20260507123029 | 27 | 82 | 2.0 | 0.0 | 0.00 | 0.00 | 0.00 | 72 | 1021.9 |
| 20260507120022 | 24 | 241 | 0.0 | 0.0 | 0.00 | 0.00 | 0.00 | 78 | 1021.7 |
| 20260507115033 | 24 | 242 | 1.0 | 0.0 | 0.00 | 0.00 | 0.00 | 78 | 1021.7 |
| 20260507114026 | 23 | 242 | 0.0 | 0.0 | 0.00 | 0.00 | 0.00 | 79 | 1021.5 |
| 20260507112022 | 24 | 241 | 0.0 | 0.0 | 0.00 | 0.00 | 0.00 | 78 | 1021.8 |
| 20260507110031 | 24 | 241 | 0.0 | 0.0 | 0.00 | 0.00 | 0.00 | 77 | 1021.6 |
| 20260507105023 | 24 | 242 | 0.0 | 0.0 | 0.00 | 0.00 | 0.00 | 76 | 1021.7 |
| 20260507104020 | 24 | 242 | 0.0 | 0.0 | 0.00 | 0.00 | 0.00 | 77 | 1021.5 |
| 20260507103037 | 24 | 241 | 0.0 | 0.0 | 0.00 | 0.00 | 0.00 | 76 | 1021.8 |